DW2513 Weather Reports


Display with metric or nautical units.
time (UTC)temp
F
wind
direction
speed
MPH
gust
MPH
rain 1hr
in
rain 24hr
in
rain mn
in
humidity
%
barometer
mb
20260904211805 75 31 0.0 0.0 0.00 0.01 0.00 56 1006.0
20260904211305 75 30 0.0 3.0 0.00 0.01 0.00 56 1006.0
20260904203805 77 138 0.0 2.0 0.00 0.01 0.00 45 1006.0
20260904203304 77 304 0.0 3.0 0.00 0.01 0.00 45 1006.0
20260904202306 77 200 0.0 3.0 0.00 0.01 0.00 46 1006.0
20260904201304 77 27 1.0 5.0 0.00 0.01 0.00 46 1006.0
20260904195804 77 214 1.0 5.0 0.00 0.01 0.00 48 1006.0
20260904193805 77 287 0.0 3.0 0.00 0.01 0.00 47 1006.3
20260904193304 76 164 0.0 0.0 0.00 0.01 0.00 49 1006.3
20260904192804 76 118 0.0 1.0 0.00 0.01 0.00 48 1006.3
20260904191305 76 262 0.0 2.0 0.00 0.01 0.00 49 1006.3
20260904185804 77 62 0.0 0.0 0.00 0.01 0.00 51 1006.2
20260904185306 77 59 0.0 3.0 0.00 0.01 0.00 46 1006.2
20260904184805 77 21 0.0 1.0 0.00 0.01 0.00 47 1006.2
20260904184305 77 293 1.0 6.0 0.00 0.01 0.00 47 1006.2
20260904183804 77 44 1.0 7.0 0.00 0.01 0.00 49 1006.2
20260904182306 78 239 2.0 7.0 0.00 0.01 0.00 42 1006.3
20260904181805 77 30 0.0 0.0 0.00 0.01 0.00 42 1006.3
20260904181304 77 93 0.0 0.0 0.00 0.01 0.00 45 1006.3
20260904175805 77 46 1.0 6.0 0.00 0.01 0.00 46 1006.3
20260904175306 77 271 0.0 1.0 0.00 0.01 0.00 51 1006.3
20260904174804 77 93 1.0 6.0 0.00 0.01 0.00 46 1006.3
20260904173805 75 98 0.0 3.0 0.00 0.01 0.00 55 1006.3
20260904172804 76 168 1.0 3.0 0.00 0.01 0.00 52 1006.3
20260904170805 77 142 0.0 0.0 0.00 0.01 0.00 48 1007.3
20260904170304 76 5 0.0 1.0 0.00 0.01 0.00 50 1007.3
20260904164804 75 14 0.0 1.0 0.00 0.01 0.00 58 1007.3
20260904163805 76 248 0.0 3.0 0.00 0.01 0.00 56 1007.3
20260904163304 76 342 0.0 0.0 0.00 0.01 0.00 59 1007.3
20260904162306 76 342 0.0 0.0 0.00 0.01 0.00 52 1007.3
20260904161305 77 133 0.0 3.0 0.00 0.01 0.00 52 1007.3
20260904160804 77 240 0.0 3.0 0.00 0.01 0.00 51 1007.3
20260904160304 77 49 0.0 5.0 0.00 0.01 0.00 58 1007.3
20260904154805 76 87 2.0 3.0 0.00 0.01 0.00 54 1007.3
20260904154305 76 151 0.0 0.0 0.00 0.01 0.00 63 1007.3
20260904153804 75 126 0.0 0.0 0.00 0.01 0.00 59 1007.3
20260904152804 75 123 0.0 1.0 0.00 0.01 0.00 63 1007.3
20260904151805 74 123 0.0 0.0 0.00 0.01 0.00 65 1007.3
20260904151304 74 123 0.0 0.0 0.00 0.01 0.00 62 1007.3
20260904150304 74 126 0.0 0.0 0.00 0.01 0.00 63 1007.3
20260904145805 73 126 0.0 0.0 0.00 0.01 0.00 66 1007.3
20260904144804 73 122 0.0 0.0 0.00 0.01 0.00 70 1007.4
20260904143804 69 122 0.0 0.0 0.00 0.01 0.00 77 1007.4
20260904142306 69 122 0.0 0.0 0.00 0.01 0.00 79 1007.9
20260904141804 69 122 0.0 0.0 0.00 0.01 0.00 81 1007.9
20260904140804 67 122 0.0 0.0 0.00 0.01 0.00 85 1007.9
20260904140304 67 122 0.0 0.0 0.00 0.01 0.00 85 1007.9
20260904135306 66 122 0.0 0.0 0.00 0.01 0.00 90 1007.9
20260904134804 65 122 0.0 0.0 0.00 0.01 0.00 91 1007.9
20260904134304 65 122 0.0 0.0 0.00 0.01 0.00 91 1007.9
20260904133804 65 122 0.0 0.0 0.00 0.01 0.00 91 1007.9
20260904132306 63 122 0.0 0.0 0.00 0.01 0.00 90 1007.9
20260904131305 63 122 0.0 0.0 0.00 0.01 0.00 90 1007.9
20260904125804 63 122 0.0 0.0 0.00 0.01 0.00 90 1007.9
20260904125305 63 122 0.0 0.0 0.00 0.01 0.00 90 1007.9
20260904124305 62 122 0.0 0.0 0.00 0.01 0.00 90 1007.9
20260904122805 62 122 0.0 0.0 0.00 0.01 0.00 90 1007.8
20260904122306 62 122 0.0 0.0 0.00 0.01 0.00 90 1007.8
20260904121305 62 122 0.0 0.0 0.00 0.01 0.00 90 1007.3
20260904120805 62 122 0.0 0.0 0.00 0.01 0.00 89 1007.3
20260904120305 62 122 0.0 0.0 0.00 0.01 0.00 89 1007.3
20260904115306 62 122 0.0 0.0 0.00 0.01 0.00 89 1007.3
20260904114304 62 122 0.0 0.0 0.00 0.01 0.00 89 1007.3
20260904113804 62 122 0.0 0.0 0.00 0.01 0.00 89 1007.3
20260904112805 62 122 0.0 0.0 0.00 0.01 0.00 89 1007.3
20260904111804 62 122 0.0 0.0 0.00 0.01 0.00 89 1007.3
20260904111304 62 122 0.0 0.0 0.00 0.01 0.00 89 1007.3
20260904110304 62 122 0.0 0.0 0.00 0.01 0.00 89 1007.3
20260904105306 62 122 0.0 0.0 0.00 0.01 0.00 89 1007.3
20260904104805 62 122 0.0 0.0 0.00 0.01 0.00 89 1007.3
20260904103804 62 122 0.0 0.0 0.00 0.01 0.00 89 1007.2
20260904103304 62 122 0.0 0.0 0.00 0.01 0.00 89 1007.2
20260904102306 62 122 0.0 0.0 0.00 0.01 0.00 89 1006.9
20260904100805 62 122 0.0 0.0 0.00 0.01 0.00 89 1006.9
20260904095306 62 122 0.0 0.0 0.00 0.01 0.00 89 1006.9
20260904094804 62 122 0.0 0.0 0.00 0.01 0.00 89 1006.9
20260904093805 63 122 0.0 0.0 0.00 0.01 0.00 89 1006.9
20260904092805 63 122 0.0 0.0 0.00 0.01 0.00 89 1006.9
20260904092306 63 122 0.0 0.0 0.00 0.01 0.00 89 1006.9
20260904085805 63 122 0.0 0.0 0.00 0.01 0.00 89 1006.9
20260904085306 63 122 0.0 0.0 0.00 0.01 0.00 89 1006.9
20260904082805 63 122 0.0 0.0 0.00 0.01 0.00 89 1006.9
20260904081804 63 122 0.0 0.0 0.00 0.01 0.00 88 1006.9
20260904081304 63 122 0.0 0.0 0.00 0.01 0.00 88 1006.9
20260904080804 63 122 0.0 0.0 0.00 0.01 0.00 88 1006.9
20260904080304 63 122 0.0 0.0 0.00 0.01 0.00 88 1006.8
20260904075805 63 122 0.0 0.0 0.00 0.01 0.00 88 1006.8
20260904073805 63 122 0.0 0.0 0.00 0.01 0.00 88 1006.8
20260904070805 64 122 0.0 0.0 0.00 0.01 0.00 87 1007.1
20260904063304 64 122 0.0 0.0 0.00 0.01 0.00 87 1007.6
20260904061804 64 122 0.0 0.0 0.00 0.01 0.00 87 1007.6
20260904061305 64 122 0.0 0.0 0.00 0.01 0.00 86 1007.6
20260904060805 64 122 0.0 0.0 0.00 0.02 0.00 86 1007.6
20260904060304 64 122 0.0 0.0 0.00 0.02 0.00 86 1007.6
20260904055804 64 122 0.0 0.0 0.00 0.02 0.00 86 1007.6
20260904055306 64 122 0.0 0.0 0.00 0.03 0.00 86 1007.6
20260904051804 64 122 0.0 0.0 0.00 0.04 0.00 85 1007.9
20260904051305 64 122 0.0 0.0 0.00 0.04 0.00 85 1007.9
20260904045804 64 122 0.0 0.0 0.00 0.05 0.00 85 1007.9
20260904044305 64 122 0.0 0.0 0.00 0.05 0.00 85 1007.9
20260904042804 65 122 0.0 0.0 0.00 0.05 0.00 85 1008.2
20260904041805 65 122 0.0 0.0 0.00 0.05 0.00 85 1008.2
20260904040819 65 122 0.0 0.0 0.00 0.05 0.00 84 1008.2
20260904035805 66 122 0.0 0.0 0.00 0.05 0.05 84 1008.2
20260904034805 66 122 0.0 0.0 0.00 0.05 0.05 84 1008.2
20260904031305 66 122 0.0 0.0 0.00 0.05 0.05 84 1008.3
20260904030804 66 122 0.0 0.0 0.00 0.05 0.05 83 1008.3
20260904030304 67 122 0.0 0.0 0.00 0.05 0.05 83 1008.3
20260904025805 67 122 0.0 0.0 0.00 0.05 0.05 83 1008.3
20260904024305 67 122 0.0 0.0 0.00 0.05 0.05 83 1008.5
20260904023304 68 122 0.0 0.0 0.00 0.05 0.05 82 1008.4
20260904022805 68 122 0.0 0.0 0.00 0.05 0.05 82 1008.4
20260904021804 68 122 0.0 0.0 0.00 0.05 0.05 82 1008.4
20260904021304 68 122 0.0 0.0 0.00 0.05 0.05 82 1008.4
20260904020804 69 122 0.0 0.0 0.00 0.05 0.05 82 1008.4
20260904020305 69 122 0.0 0.0 0.00 0.05 0.05 82 1008.4
20260904015804 69 122 0.0 0.0 0.00 0.05 0.05 82 1008.4
20260904013305 69 122 0.0 0.0 0.01 0.05 0.05 82 1008.3
20260904012804 69 122 0.0 0.0 0.01 0.05 0.05 82 1008.3
20260904012306 69 122 0.0 0.0 0.01 0.05 0.05 82 1008.3
20260904011305 69 122 0.0 0.0 0.01 0.05 0.05 82 1007.6
20260904010804 69 122 0.0 0.0 0.01 0.05 0.05 82 1007.6
20260904005306 70 122 0.0 0.0 0.01 0.05 0.05 82 1007.6
20260904004805 70 122 0.0 0.0 0.01 0.05 0.05 82 1007.6
20260904004305 70 122 0.0 0.0 0.00 0.04 0.04 82 1007.6
20260904002306 71 122 0.0 0.0 0.00 0.04 0.04 81 1007.6
20260904001305 71 122 0.0 0.0 0.00 0.04 0.04 81 1007.6
20260904000804 71 122 0.0 0.0 0.00 0.04 0.04 81 1007.4
20260903235805 71 122 0.0 0.0 0.00 0.04 0.04 81 1007.4
20260903234804 71 122 0.0 0.0 0.00 0.04 0.04 81 1007.4
20260903232306 72 122 0.0 0.0 0.00 0.04 0.04 80 1007.4
20260903231805 72 122 0.0 0.0 0.00 0.04 0.04 80 1007.4
20260903231305 72 122 0.0 0.0 0.00 0.04 0.04 80 1007.4
20260903230805 72 122 0.0 0.0 0.00 0.04 0.04 79 1007.4
20260903230304 72 122 0.0 0.0 0.00 0.04 0.04 79 1007.3
20260903225306 72 122 0.0 0.0 0.00 0.04 0.04 79 1007.2
20260903224805 72 122 0.0 0.0 0.00 0.04 0.04 79 1007.2
20260903223805 72 122 0.0 0.0 0.00 0.04 0.04 78 1007.2
20260903221804 72 122 0.0 0.0 0.00 0.04 0.04 77 1007.2
20260903220305 73 122 0.0 0.0 0.00 0.04 0.04 77 1007.8
20260903215804 73 122 0.0 0.0 0.00 0.04 0.04 77 1008.3
20260903215306 72 122 0.0 0.0 0.00 0.04 0.04 77 1008.3
20260903214804 72 122 0.0 0.0 0.00 0.04 0.04 77 1008.3
20260903212306 72 123 0.0 0.0 0.00 0.04 0.04 77 1008.3